Terug naar catalogus

ATLAS 5 CENTAUR DEB

ActiefHEO
NORAD 46601·DEBRIS·🇺🇸 United States

Gelanceerd Oct 17, 2018 vanaf Cape Canaveral Space Force Station

Loading…

Volgende Passages (komende 24 uur)

TLE

VersSource: Space-Track

Epoch: Sep 11, 2026, 14:19 UTC

1 46601U 18079BZ  26254.59676098 -.00000179  00000-0  00000-0 0  9999
2 46601  13.1875  28.6551 4419417 334.3897   8.9989  1.85681997 43103

Volg ATLAS 5 CENTAUR DEB in realtime met AllMySat

Download on the App Store